{"data":{"norad_id":48098,"intl_designator":"2021-027G","name":"STARLINK-2421","alt_names":[],"object_type":"PAYLOAD","status":"ACTIVE","operator":null,"country":"US","launch_date":"2021-04-07","launch_site_code":"AFETR","launch_vehicle":null,"mission":null,"orbit_class":"UNKNOWN","rcs_meters":null,"size_class":null,"mass_kg":null,"dimensions":null,"purposes":["comms"],"wikipedia_slug":null,"has_3d_model":false,"image_url":null,"decayed_at":null,"tle_current":{"epoch":"2026-05-24T17:44:06.382464Z","epoch_age_seconds":90844,"freshness":"FRESH","line1":"1 48098U 21027G   26144.73896276  .00001304  00000+0  53765-4 0  9993","line2":"2 48098  53.1590 161.2241 0001291  82.5822 277.5326 15.31706465284308","mean_motion":15.31706465,"eccentricity":0.0001291,"inclination_deg":53.159,"raan_deg":161.2241,"arg_perigee_deg":82.5822,"mean_anomaly_deg":277.5326,"bstar":5.3765e-5,"rev_number":28430,"period_min":94.012791151861,"perigee_km":469.83653593274,"apogee_km":471.60491099694,"semimajor_km":6848.8577234648,"source":"CELESTRAK","updated_at":"2026-05-25T13:38:16.642315Z"}}}